Tucson, AZ

12:28 AM MST on December 14, 2017 (GMT -0700)
Tucson International

Weather History for KTUS - September, 2011

Change the Weather History Date:

Tuesday, September 13, 2011

  Actual Average Record
Temperature  
Mean Temperature 80 °F 83 °F  
Max Temperature 92 °F 96 °F 107 °F (1995)
Min Temperature 67 °F 70 °F 52 °F (1952)
Degree Days  
Heating Degree Days 0 0  
Month to date heating degree days 0 0  
Since 1 July heating degree days 0 0  
Cooling Degree Days 15 18  
Month to date cooling degree days 271 246  
Year to date cooling degree days 2906 2656  
Growing Degree Days 29 (Base 50)    
Moisture  
Dew Point 59 °F    
Average Humidity 56    
Maximum Humidity 87    
Minimum Humidity 24    
Precipitation  
Precipitation 0.12 in 0.04 in 0.90 in (1992)
Month to date precipitation 2.61 0.65  
Year to date precipitation 6.18 8.56  
Snow  
Snow 0.00 in - - ()
Month to date snowfall 0.0  
Snow Depth 0.00 in    
Sea Level Pressure  
Sea Level Pressure 29.99 in    
Wind  
Wind Speed 6 mph (South)    
Max Wind Speed 23 mph    
Max Gust Speed 31 mph    
Visibility 10 miles    
Events Rain , Thunderstorm    
T = Trace of Precipitation, MM = Missing Value Source: NWS Daily Summary

Daily Weather History Graph

Daily Weather History Graph

Search for Another Location

Airport or City:

Trip Planner

Search our weather history database for the weather conditions in past years. The results will help you decide how hot, cold, wet, or windy it might be!

Date:

Astronomy

Sep. 13, 2011 Rise Set
Actual Time 6:06 AM MST 6:32 PM MST
Civil Twilight 5:41 AM MST 6:57 PM MST
Nautical Twilight 5:12 AM MST 7:25 PM MST
Astronomical Twilight 4:43 AM MST 7:55 PM MST
Moon 7:00 PM MST (9/13) 7:14 AM MST (9/13)
Length of Visible Light 13h 15m
Length of Day
12h 26m
Full, 98% of the Moon is Illuminated
Sep 13
Full
Sep 20
Last Quarter
Sep 27
New
Oct 3
First Quarter
Oct 11
Full

Hourly Weather History & Observations

Time (MST) Temp. Heat Index Dew Point Humidity Pressure Visibility Wind Dir Wind Speed Gust Speed Precip Events Conditions
12:53 AM 68.0 °F - 64.0 °F 87% 30.02 in 10.0 mi SSE 5.8 mph - N/A   Clear
1:53 AM 69.1 °F - 64.0 °F 84% 30.01 in 10.0 mi ESE 9.2 mph - 0.01 in Rain Light Rain
2:53 AM 70.0 °F - 63.0 °F 78% 29.98 in 10.0 mi East 15.0 mph - N/A   Mostly Cloudy
3:53 AM 68.0 °F - 63.0 °F 84% 30.00 in 10.0 mi Calm Calm - 0.00 in   Partly Cloudy
4:53 AM 68.0 °F - 63.0 °F 84% 30.00 in 10.0 mi ENE 3.5 mph - N/A   Clear
5:53 AM 68.0 °F - 62.1 °F 81% 30.03 in 10.0 mi East 3.5 mph - N/A   Clear
6:53 AM 69.1 °F - 62.1 °F 78% 30.03 in 10.0 mi East 8.1 mph - N/A   Clear
7:53 AM 71.1 °F - 63.0 °F 75% 30.04 in 10.0 mi South 6.9 mph - N/A   Clear
8:53 AM 77.0 °F - 59.0 °F 54% 30.02 in 10.0 mi ESE 6.9 mph - N/A   Clear
9:53 AM 79.0 °F - 62.1 °F 56% 30.01 in 10.0 mi South 4.6 mph - N/A   Clear
10:53 AM 84.2 °F 83.8 °F 59.0 °F 42% 30.12 in 10.0 mi SE 8.1 mph - N/A   Clear
11:53 AM 86.0 °F 85.0 °F 57.9 °F 38% 29.98 in 10.0 mi SE 8.1 mph - N/A   Clear
12:53 PM 88.0 °F 86.5 °F 55.9 °F 34% 29.95 in 10.0 mi South 4.6 mph - N/A   Clear
1:53 PM 90.0 °F - 48.0 °F 24% 29.92 in 10.0 mi Variable 5.8 mph - N/A   Mostly Cloudy
2:53 PM 90.0 °F - 48.0 °F 24% 29.89 in 10.0 mi Calm Calm - N/A   Clear
3:13 PM 89.6 °F - 48.2 °F 24% 30.02 in 10.0 mi WSW 4.6 mph - N/A Thunderstorm Scattered Clouds
3:34 PM 84.2 °F 83.5 °F 57.2 °F 40% 30.01 in 10.0 mi WNW 10.4 mph - 0.00 in Rain Light Rain
3:53 PM 87.1 °F 84.9 °F 53.1 °F 31% 29.87 in 10.0 mi NNW 9.2 mph - 0.00 in   Partly Cloudy
4:53 PM 87.8 °F 86.1 °F 55.4 °F 33% 29.99 in 10.0 mi Calm Calm - N/A   Clear
5:53 PM 87.1 °F 85.3 °F 55.0 °F 33% 29.86 in 10.0 mi WNW 4.6 mph - N/A   Partly Cloudy
6:10 PM 86.0 °F 84.5 °F 55.4 °F 35% 29.99 in 10.0 mi WNW 5.8 mph - N/A Thunderstorm Scattered Clouds
6:53 PM 82.9 °F 82.4 °F 57.0 °F 41% 29.89 in 10.0 mi NNW 21.9 mph 27.6 mph N/A Thunderstorm Overcast
7:04 PM 78.8 °F - 59.0 °F 51% 30.02 in 10.0 mi North 13.8 mph 31.1 mph N/A   Overcast
7:53 PM 75.9 °F - 59.0 °F 56% 29.93 in 10.0 mi NW 13.8 mph - 0.00 in   Mostly Cloudy
8:01 PM 75.2 °F - 59.0 °F 57% 30.05 in 10.0 mi WNW 11.5 mph - N/A Thunderstorm Scattered Clouds
8:34 PM 71.6 °F - 64.4 °F 78% 30.11 in 5.0 mi SSW 10.4 mph 24.2 mph 0.03 in Rain , Thunderstorm Heavy Thunderstorms and Rain
8:53 PM 69.1 °F - 64.9 °F 87% 30.02 in 10.0 mi West 5.8 mph - 0.09 in Rain , Thunderstorm Light Thunderstorms and Rain
9:19 PM 69.8 °F - 64.4 °F 83% 30.13 in 10.0 mi NW 6.9 mph - 0.02 in Rain Light Rain
9:53 PM 69.1 °F - 64.9 °F 87% 30.01 in 10.0 mi Calm Calm - 0.02 in   Mostly Cloudy
10:53 PM 69.1 °F - 64.9 °F 87% 29.97 in 10.0 mi SE 4.6 mph - N/A   Clear
11:53 PM 68.0 °F - 64.9 °F 90% 29.96 in 10.0 mi Calm Calm - N/A   Clear